KC5AYO Weather Reports


time (UTC)temp
F
wind
direction
speed
knots
gust
knots
rain 1hr
in
rain 24hr
in
rain mn
in
humidity
%
barometer
mb
20260905191058 93 319 0.0 1.7 0.00 0.00 0.00 53 1010.6
20260905190555 92 302 0.0 1.7 0.00 0.00 0.00 56 1010.7
20260905190059 92 298 0.0 1.7 0.00 0.00 0.00 55 1010.8
20260905185555 92 209 0.0 1.7 0.00 0.00 0.00 52 1010.8
20260905185059 92 254 0.0 1.7 0.00 0.00 0.00 51 1010.9
20260905184555 93 114 0.0 1.7 0.00 0.00 0.00 53 1011.0
20260905184057 92 290 0.0 1.7 0.00 0.00 0.00 52 1011.1
20260905183553 92 104 0.0 0.9 0.00 0.00 0.00 55 1011.3
20260905183052 92 299 0.0 0.0 0.00 0.00 0.00 57 1011.3
20260905182552 91 105 0.0 1.7 0.00 0.00 0.00 52 1011.4
20260905182054 92 199 0.0 1.7 0.00 0.00 0.00 51 1011.4
20260905181551 91 99 0.0 2.6 0.00 0.00 0.00 57 1011.3
20260905181050 91 277 0.0 2.6 0.00 0.00 0.00 55 1011.3
20260905180550 91 178 0.0 1.7 0.00 0.00 0.00 52 1011.4
20260905180109 91 229 0.0 1.7 0.00 0.00 0.00 54 1011.4
20260905175548 91 313 0.0 1.7 0.00 0.00 0.00 53 1011.4
20260905175046 90 291 0.0 0.0 0.00 0.00 0.00 55 1011.5
20260905174547 90 262 0.0 1.7 0.00 0.00 0.00 54 1011.7
20260905174046 90 221 0.0 1.7 0.00 0.00 0.00 55 1011.6
20260905173546 90 237 0.0 1.7 0.00 0.00 0.00 56 1011.6
20260905173108 90 117 0.0 1.7 0.00 0.00 0.00 55 1011.8
20260905172544 89 240 0.0 1.7 0.00 0.00 0.00 55 1011.8
20260905172043 89 150 0.0 1.7 0.00 0.00 0.00 55 1011.8
20260905171552 88 178 0.0 1.7 0.00 0.00 0.00 59 1012.0
20260905171040 88 284 0.0 2.6 0.00 0.00 0.00 57 1012.0
20260905170540 88 105 0.0 2.6 0.00 0.00 0.00 55 1012.2
20260905170040 89 160 0.0 2.6 0.00 0.00 0.00 58 1012.4
20260905165537 88 254 0.0 1.7 0.00 0.00 0.00 57 1012.4
20260905165036 87 179 0.0 1.7 0.00 0.00 0.00 58 1012.5
20260905164536 87 295 0.0 2.6 0.00 0.00 0.00 57 1012.5
20260905164036 87 104 0.0 2.6 0.00 0.00 0.00 57 1012.6
20260905163533 87 267 0.0 1.7 0.00 0.00 0.00 59 1012.6
20260905163032 87 264 0.0 1.7 0.00 0.00 0.00 57 1012.4
20260905162530 86 360 0.0 1.7 0.00 0.00 0.00 58 1012.3
20260905162030 85 311 0.0 1.7 0.00 0.00 0.00 63 1012.5
20260905161528 85 94 0.0 1.7 0.00 0.00 0.00 66 1012.4
20260905161028 84 112 0.0 2.6 0.00 0.00 0.00 65 1012.4
20260905160526 83 82 0.0 2.6 0.00 0.00 0.00 61 1012.5
20260905160044 83 269 0.0 1.7 0.00 0.00 0.00 63 1012.6
20260905155526 82 177 0.0 1.7 0.00 0.00 0.00 65 1012.7
20260905155021 82 138 0.0 1.7 0.00 0.00 0.00 66 1012.7
20260905154521 82 280 0.0 1.7 0.00 0.00 0.00 68 1012.8
20260905154023 81 250 0.0 1.7 0.00 0.00 0.00 68 1012.8
20260905153521 81 163 0.0 1.7 0.00 0.00 0.00 67 1012.7
20260905153022 81 149 0.0 1.7 0.00 0.00 0.00 66 1012.7
20260905152520 81 166 0.0 1.7 0.00 0.00 0.00 63 1012.8
20260905152023 81 120 0.0 1.7 0.00 0.00 0.00 65 1012.7
20260905151520 82 67 0.0 2.6 0.00 0.00 0.00 62 1012.8
20260905151020 82 105 0.0 2.6 0.00 0.00 0.00 61 1012.9
20260905150517 81 158 0.0 1.7 0.00 0.00 0.00 63 1012.8
20260905150017 81 192 0.0 1.7 0.00 0.00 0.00 63 1012.9
20260905145519 81 142 0.0 1.7 0.00 0.00 0.00 65 1012.9
20260905145014 81 203 0.0 4.3 0.00 0.00 0.00 66 1012.8
20260905144523 80 178 0.9 4.3 0.00 0.00 0.00 63 1012.8
20260905144018 80 126 0.0 2.6 0.00 0.00 0.00 64 1012.9
20260905143510 80 132 0.9 2.6 0.00 0.00 0.00 64 1013.0
20260905143010 80 129 0.0 2.6 0.00 0.00 0.00 70 1013.2
20260905142508 79 260 0.0 2.6 0.00 0.00 0.00 67 1013.2
20260905142007 79 109 0.0 2.6 0.00 0.00 0.00 67 1013.2
20260905141512 78 117 0.0 1.7 0.00 0.00 0.00 72 1013.2
20260905141005 78 148 0.0 1.7 0.00 0.00 0.00 69 1013.2
20260905140507 78 173 0.0 1.7 0.00 0.00 0.00 69 1013.3
20260905140014 77 150 0.0 1.7 0.00 0.00 0.00 69 1013.3
20260905135504 77 169 0.0 1.7 0.00 0.00 0.00 71 1013.4
20260905135005 77 175 0.0 1.7 0.00 0.00 0.00 70 1013.4
20260905134504 77 181 0.0 1.7 0.00 0.00 0.00 72 1013.4
20260905134003 77 156 0.0 1.7 0.00 0.00 0.00 74 1013.3
20260905133503 77 149 0.0 2.6 0.00 0.00 0.00 72 1013.3
20260905133007 77 132 0.0 2.6 0.00 0.00 0.00 73 1013.3
20260905132501 76 115 0.0 1.7 0.00 0.00 0.00 74 1013.5
20260905132001 76 153 0.0 1.7 0.00 0.00 0.00 73 1013.5
20260905131601 76 117 0.0 1.7 0.00 0.00 0.00 72 1013.5
20260905131059 76 105 0.0 1.7 0.00 0.00 0.00 74 1013.6
20260905130559 75 88 0.0 1.7 0.00 0.00 0.00 76 1013.6
20260905130059 75 107 0.0 1.7 0.00 0.00 0.00 77 1013.7
20260905125558 75 147 0.0 2.6 0.00 0.00 0.00 77 1013.5
20260905125057 75 115 0.0 2.6 0.00 0.00 0.00 78 1013.4
20260905124559 75 105 0.0 2.6 0.00 0.00 0.00 78 1013.4
20260905124056 74 128 0.0 1.7 0.00 0.00 0.00 81 1013.5
20260905123556 74 129 0.0 1.7 0.00 0.00 0.00 80 1013.7
20260905123103 74 117 0.0 1.7 0.00 0.00 0.00 81 1013.5
20260905122555 74 105 0.0 1.7 0.00 0.00 0.00 80 1013.5
20260905122056 75 110 0.0 2.6 0.00 0.00 0.00 81 1013.5
20260905121559 75 101 0.9 2.6 0.00 0.00 0.00 80 1013.6
20260905121053 75 96 0.0 2.6 0.00 0.00 0.00 81 1013.6
20260905120550 75 109 0.9 3.5 0.00 0.00 0.00 79 1013.4
20260905120100 75 102 1.7 3.5 0.00 0.00 0.00 79 1013.4
20260905115549 75 96 0.9 5.2 0.00 0.00 0.00 79 1013.5
20260905115051 75 107 0.9 5.2 0.00 0.00 0.00 79 1013.4
20260905114600 75 77 2.6 7.0 0.00 0.00 0.00 80 1013.4
20260905114046 76 144 1.7 7.0 0.00 0.00 0.00 83 1013.4
20260905113545 76 65 1.7 7.0 0.00 0.00 0.00 86 1013.2
20260905113054 76 80 2.6 7.0 0.00 0.00 0.00 90 1013.1
20260905112543 76 86 1.7 7.0 0.00 0.00 0.00 93 1012.9
20260905112042 76 91 1.7 3.5 0.00 0.00 0.00 93 1012.6
20260905111623 76 63 0.0 0.0 0.00 0.00 0.00 94 1012.2
20260905111041 76 9 0.0 0.0 0.00 0.00 0.00 93 1011.8
20260905110540 75 9 0.0 0.0 0.00 0.00 0.00 94 1011.7
20260905110039 75 9 0.0 0.0 0.00 0.00 0.00 93 1011.5
20260905105539 75 9 0.0 0.0 0.00 0.00 0.00 93 1011.4
20260905105038 76 9 0.0 0.0 0.00 0.00 0.00 93 1011.3
20260905104538 76 9 0.0 0.0 0.00 0.00 0.00 93 1011.3
20260905104038 76 9 0.0 0.0 0.00 0.00 0.00 92 1011.3
20260905103538 76 9 0.0 0.0 0.00 0.00 0.00 92 1011.3
20260905103039 76 9 0.0 0.0 0.00 0.00 0.00 92 1011.4
20260905102540 76 9 0.0 0.0 0.00 0.00 0.00 92 1011.5
20260905102038 76 5 0.0 0.0 0.00 0.00 0.00 92 1011.4
20260905101541 76 9 0.0 0.0 0.00 0.00 0.00 93 1011.5
20260905101036 76 9 0.0 0.0 0.00 0.00 0.00 93 1011.6
20260905100536 76 338 0.0 0.0 0.00 0.00 0.00 92 1011.5
20260905100036 76 338 0.0 0.0 0.00 0.00 0.00 91 1011.4
20260905095535 76 338 0.0 0.0 0.00 0.00 0.00 91 1011.3
20260905095035 76 338 0.0 0.0 0.00 0.00 0.00 91 1011.3
20260905094535 76 338 0.0 0.0 0.00 0.00 0.00 91 1011.3
20260905094036 76 338 0.0 0.0 0.00 0.00 0.00 91 1011.4
20260905093534 76 338 0.0 0.0 0.00 0.00 0.00 91 1011.4
20260905093039 76 338 0.0 0.0 0.00 0.00 0.00 91 1011.3
20260905092534 76 338 0.0 0.0 0.00 0.00 0.00 91 1011.3
20260905092033 77 338 0.0 0.0 0.00 0.00 0.00 91 1011.3
20260905091533 77 338 0.0 0.0 0.00 0.00 0.00 91 1011.3
20260905091032 77 338 0.0 0.0 0.00 0.00 0.00 91 1011.3
20260905090532 77 338 0.0 0.0 0.00 0.00 0.00 91 1011.3
20260905090032 77 338 0.0 0.0 0.00 0.00 0.00 91 1011.3
20260905085532 77 338 0.0 0.0 0.00 0.00 0.00 89 1011.1
20260905085032 77 338 0.0 0.0 0.00 0.00 0.00 90 1011.2
20260905084533 76 338 0.0 0.0 0.00 0.00 0.00 90 1011.1
20260905084031 76 338 0.0 0.0 0.00 0.00 0.00 90 1011.0
20260905083531 77 338 0.0 0.0 0.00 0.00 0.00 90 1010.9
20260905083031 77 338 0.0 0.0 0.00 0.00 0.00 90 1011.0
20260905082531 77 338 0.0 0.0 0.00 0.00 0.00 90 1011.0
20260905082031 77 338 0.0 0.0 0.00 0.00 0.00 90 1011.0
20260905081531 77 338 0.0 0.0 0.00 0.00 0.00 91 1011.0
20260905081033 77 338 0.0 0.0 0.00 0.00 0.00 91 1011.0
20260905080530 77 338 0.0 0.0 0.00 0.00 0.00 91 1010.9
20260905080033 77 338 0.0 0.0 0.00 0.00 0.00 91 1010.7
20260905075529 77 338 0.0 0.0 0.00 0.00 0.00 91 1010.8
20260905075029 77 338 0.0 0.0 0.00 0.00 0.00 92 1010.7
20260905074530 77 338 0.0 0.0 0.00 0.00 0.00 92 1010.6
20260905074029 77 338 0.0 0.0 0.00 0.00 0.00 93 1010.7
20260905073529 76 338 0.0 0.0 0.00 0.00 0.00 93 1010.7
20260905073035 76 338 0.0 0.0 0.00 0.00 0.00 93 1010.7
20260905072528 77 338 0.0 0.0 0.00 0.00 0.00 93 1010.8
20260905072027 76 338 0.0 0.0 0.00 0.00 0.00 93 1010.8
20260905071527 76 338 0.0 0.0 0.00 0.00 0.00 93 1010.9
20260905071025 77 338 0.0 0.0 0.00 0.00 0.00 93 1011.0
20260905070528 76 338 0.0 0.0 0.00 0.00 0.00 93 1011.1
20260905070043 77 338 0.0 0.0 0.00 0.00 0.00 93 1011.1
20260905065523 77 338 0.0 0.0 0.00 0.00 0.00 93 1011.1
20260905065023 77 338 0.0 0.0 0.00 0.00 0.00 93 1011.2
20260905064537 77 338 0.0 0.0 0.00 0.00 0.00 93 1011.4
20260905064022 77 338 0.0 0.0 0.00 0.00 0.00 93 1011.4
20260905063521 77 338 0.0 0.0 0.00 0.00 0.00 93 1011.4
20260905063021 77 338 0.0 0.0 0.00 0.00 0.00 92 1011.5
20260905062520 77 338 0.0 0.0 0.00 0.00 0.00 92 1011.5
20260905062020 77 338 0.0 0.0 0.00 0.00 0.00 92 1011.7
20260905061520 77 338 0.0 0.0 0.00 0.00 0.00 92 1011.6
20260905061018 77 338 0.0 0.0 0.00 0.00 0.00 92 1011.7
20260905060517 77 338 0.0 0.0 0.00 0.00 0.00 91 1011.8
20260905060021 78 338 0.0 0.0 0.00 0.00 0.00 91 1011.7
20260905055516 78 339 0.0 0.0 0.00 0.00 0.00 92 1011.7
20260905055022 78 69 0.0 0.0 0.00 0.00 0.00 92 1011.7
20260905054526 78 69 0.0 0.0 0.00 0.00 0.00 92 1011.8
20260905054018 78 69 0.0 0.0 0.00 0.00 0.00 92 1011.7
20260905053515 78 69 0.0 0.0 0.00 0.00 0.00 92 1011.8
20260905053017 78 69 0.0 0.0 0.00 0.00 0.00 92 1011.9
20260905052513 78 69 0.0 0.0 0.00 0.00 0.00 92 1012.0
20260905052013 78 69 0.0 0.0 0.00 0.00 0.00 92 1011.9
20260905051521 78 69 0.0 0.0 0.00 0.00 0.00 92 1012.0
20260905051011 78 69 0.0 0.0 0.00 0.00 0.00 92 1012.1
20260905050511 78 69 0.0 0.0 0.00 0.00 0.00 92 1012.1
20260905050010 78 69 0.0 0.0 0.00 0.00 0.00 92 1012.1
20260905045510 79 69 0.0 0.0 0.00 0.00 0.00 91 1012.2
20260905045010 79 69 0.0 0.0 0.00 0.00 0.00 91 1012.2
20260905044509 79 69 0.0 0.0 0.00 0.00 0.00 91 1012.3
20260905044008 79 69 0.0 0.0 0.00 0.00 0.00 91 1012.3
20260905043508 79 70 0.0 0.0 0.00 0.00 0.00 91 1012.2
20260905043009 79 69 0.0 0.0 0.00 0.00 0.00 90 1012.3
20260905042509 79 69 0.0 0.0 0.00 0.00 0.00 90 1012.4
20260905042008 79 69 0.0 0.0 0.00 0.00 0.00 91 1012.4
20260905041507 79 69 0.0 0.0 0.00 0.00 0.00 91 1012.3
20260905041005 79 69 0.0 0.0 0.00 0.00 0.00 89 1012.3
20260905040505 79 69 0.0 0.0 0.00 0.00 0.00 89 1012.2
20260905040011 79 69 0.0 0.0 0.00 0.00 0.00 89 1012.2
20260905035504 79 69 0.0 0.0 0.00 0.00 0.00 89 1012.2
20260905035004 79 69 0.0 0.0 0.00 0.00 0.00 89 1012.2
20260905034510 79 69 0.0 0.0 0.00 0.00 0.00 88 1012.2
20260905034007 80 69 0.0 0.0 0.00 0.00 0.00 88 1012.2
20260905033503 80 69 0.0 0.0 0.00 0.00 0.00 88 1012.2
20260905033005 80 69 0.0 0.0 0.00 0.00 0.00 88 1012.1
20260905032504 80 69 0.0 0.0 0.00 0.00 0.00 88 1012.2
20260905032003 80 69 0.0 0.0 0.00 0.00 0.00 87 1012.1
20260905031503 80 69 0.0 0.0 0.00 0.00 0.00 87 1012.2
20260905031002 80 69 0.0 0.0 0.00 0.00 0.00 86 1012.2
20260905030502 81 69 0.0 0.0 0.00 0.00 0.00 85 1012.2
20260905030003 81 69 0.0 0.0 0.00 0.00 0.00 83 1012.0
20260905025503 81 69 0.0 0.0 0.00 0.00 0.00 84 1012.0
20260905025003 81 69 0.0 0.0 0.00 0.00 0.00 84 1012.1
20260905024503 82 69 0.0 0.0 0.00 0.00 0.00 85 1012.2
20260905024002 82 69 0.0 0.0 0.00 0.00 0.00 86 1012.2
20260905023502 82 69 0.0 0.0 0.00 0.00 0.00 85 1012.2
20260905023004 82 69 0.0 0.0 0.00 0.00 0.00 86 1012.2
20260905022503 82 69 0.0 0.0 0.00 0.00 0.00 87 1012.2
20260905022001 82 69 0.0 0.0 0.00 0.00 0.00 89 1012.2
20260905021502 81 294 0.0 0.0 0.00 0.00 0.00 88 1012.2
20260905021002 81 294 0.0 0.0 0.00 0.00 0.00 88 1012.1
20260905020501 82 294 0.0 0.0 0.00 0.00 0.00 87 1012.1
20260905020106 82 294 0.0 0.0 0.00 0.00 0.00 87 1012.1
20260905015600 82 294 0.0 0.0 0.00 0.00 0.00 87 1012.0
20260905015101 82 294 0.0 0.0 0.00 0.00 0.00 87 1011.9
20260905014601 82 294 0.0 0.0 0.00 0.00 0.00 87 1012.0
20260905014100 82 294 0.0 0.0 0.00 0.00 0.00 86 1011.9
20260905013600 82 294 0.0 0.0 0.00 0.00 0.00 86 1011.8
20260905013100 83 294 0.0 0.0 0.00 0.00 0.00 86 1011.7
20260905012602 83 294 0.0 0.0 0.00 0.00 0.00 86 1011.7
20260905012103 83 294 0.0 0.0 0.00 0.00 0.00 85 1011.7
20260905011601 83 294 0.0 0.0 0.00 0.00 0.00 85 1011.7
20260905011059 83 294 0.0 0.0 0.00 0.00 0.00 85 1011.6
20260905010601 83 294 0.0 0.0 0.00 0.00 0.00 83 1011.5
20260905010059 84 294 0.0 0.0 0.00 0.00 0.00 82 1011.5
20260905005558 84 294 0.0 0.0 0.00 0.00 0.00 81 1011.5
20260905005058 84 294 0.0 0.0 0.00 0.00 0.00 81 1011.4
20260905004558 84 294 0.0 0.0 0.00 0.00 0.00 80 1011.4
20260905004058 84 294 0.0 0.0 0.00 0.00 0.00 80 1011.4
20260905003601 85 294 0.0 0.0 0.00 0.00 0.00 79 1011.3
20260905003059 85 294 0.0 0.0 0.00 0.00 0.00 77 1011.3
20260905002557 85 294 0.0 0.0 0.00 0.00 0.00 76 1011.3
20260905002057 86 294 0.0 0.0 0.00 0.00 0.00 76 1011.3
20260905001607 86 294 0.0 0.0 0.00 0.00 0.00 73 1011.3
20260905001056 86 294 0.0 0.0 0.00 0.00 0.00 73 1011.3
20260905000557 87 294 0.0 0.0 0.00 0.00 0.00 74 1011.3
20260904235557 87 294 0.0 0.0 0.00 0.00 0.00 70 1011.2
20260904235059 88 294 0.0 0.0 0.00 0.00 0.00 69 1011.2
20260904234606 89 294 0.0 0.0 0.00 0.00 0.00 68 1011.1
20260904234056 89 294 0.0 0.0 0.00 0.00 0.00 67 1011.2
20260904233556 90 294 0.0 0.0 0.00 0.00 0.00 66 1011.3
20260904233056 91 294 0.0 0.0 0.00 0.00 0.00 64 1011.3
20260904232556 91 294 0.0 0.0 0.00 0.00 0.00 63 1011.2
20260904232056 91 294 0.0 0.0 0.00 0.00 0.00 62 1011.1
20260904231555 92 294 0.0 0.0 0.00 0.00 0.00 62 1011.2
20260904231055 92 294 0.0 0.0 0.00 0.00 0.00 62 1011.1
20260904230554 92 294 0.0 0.0 0.00 0.00 0.00 60 1011.1
20260904230054 92 294 0.0 0.0 0.00 0.00 0.00 62 1011.3
20260904225554 93 294 0.0 0.0 0.00 0.00 0.00 57 1011.2
20260904225054 93 294 0.0 0.0 0.00 0.00 0.00 55 1011.3
20260904224553 93 294 0.0 0.0 0.00 0.00 0.00 55 1011.2
20260904224053 93 153 0.0 0.0 0.00 0.00 0.00 59 1011.3
20260904223553 93 196 0.0 0.0 0.00 0.00 0.00 54 1011.4
20260904223056 93 207 0.0 1.7 0.00 0.00 0.00 53 1011.3
20260904222552 93 260 0.0 1.7 0.00 0.00 0.00 54 1011.4
20260904222052 94 321 0.0 1.7 0.00 0.00 0.00 53 1011.4
20260904221555 94 201 0.0 0.9 0.00 0.00 0.00 54 1011.4
20260904221051 94 301 0.0 0.9 0.00 0.00 0.00 56 1011.4
20260904220551 94 327 0.0 0.9 0.00 0.00 0.00 54 1011.5
20260904220106 94 173 0.0 1.7 0.00 0.00 0.00 55 1011.4
20260904215551 94 300 0.0 1.7 0.00 0.00 0.00 54 1011.4
20260904215055 94 230 0.0 1.7 0.00 0.00 0.00 54 1011.3
20260904214550 94 300 0.0 1.7 0.00 0.00 0.00 57 1011.4
20260904214050 94 258 0.0 1.7 0.00 0.00 0.00 55 1011.4
20260904213551 93 336 0.0 1.7 0.00 0.00 0.00 55 1011.5
20260904213050 93 341 0.0 2.6 0.00 0.00 0.00 56 1011.5
20260904212552 93 347 0.0 2.6 0.00 0.00 0.00 55 1011.4
20260904212049 94 304 0.0 2.6 0.00 0.00 0.00 55 1011.5
20260904211554 94 323 0.0 0.9 0.00 0.00 0.00 56 1011.6
20260904211048 93 316 0.0 3.5 0.00 0.00 0.00 54 1011.6
20260904210547 94 294 0.0 3.5 0.00 0.00 0.00 55 1011.7
20260904210054 94 304 0.0 3.5 0.00 0.00 0.00 54 1011.9
20260904205546 94 309 0.9 3.5 0.00 0.00 0.00 54 1011.9
20260904205045 94 327 0.0 1.7 0.00 0.00 0.00 55 1012.0
20260904204544 94 294 0.0 1.7 0.00 0.00 0.00 57 1012.0
20260904204044 94 349 0.0 1.7 0.00 0.00 0.00 55 1012.1
20260904203544 94 300 0.0 2.6 0.00 0.00 0.00 56 1012.0
20260904203044 94 360 0.0 2.6 0.00 0.00 0.00 54 1012.2
20260904202543 94 327 0.0 2.6 0.00 0.00 0.00 56 1012.2
20260904202044 94 350 0.0 2.6 0.00 0.00 0.00 53 1012.3
20260904201545 94 334 0.0 2.6 0.00 0.00 0.00 54 1012.4
20260904201042 94 349 0.0 2.6 0.00 0.00 0.00 54 1012.3
20260904200542 94 328 0.0 2.6 0.00 0.00 0.00 55 1012.3
20260904200100 95 306 0.0 2.6 0.00 0.00 0.00 54 1012.4
20260904195541 95 303 0.0 1.7 0.00 0.00 0.00 53 1012.4
20260904195041 95 311 0.0 2.6 0.00 0.00 0.00 53 1012.4
20260904194622 95 305 0.0 2.6 0.00 0.00 0.00 52 1012.5
20260904194040 96 171 0.0 1.7 0.00 0.00 0.00 51 1012.5
20260904193540 95 316 0.0 2.6 0.00 0.00 0.00 49 1012.6
20260904193043 95 293 0.0 2.6 0.00 0.00 0.00 51 1012.6
20260904192537 95 287 0.0 2.6 0.00 0.00 0.00 53 1012.8
20260904192037 95 9 0.0 4.3 0.00 0.00 0.00 51 1012.9
20260904191537 95 312 0.0 4.3 0.00 0.00 0.00 53 1012.9